Home   Weather   Davenport   Past weeks
Flag for USA

Past Weather in Davenport, Iowa, USA — Yesterday and Last 2 Weeks

Now
11 °F

Passing clouds.


Feels Like: -3 °F
Forecast: 19 / -4 °F
Wind: 10 mph from West

Location: Davenport Municipal Airport

Current Time: Jan 24, 2019 at 6:56:36 am

Latest Report: Jan 24, 2019 at 6:15 am


Visibility: 7 mi

Pressure: 29.87 "Hg

Humidity: 84%

Dew Point: 7 °F

Location of DavenportLocation

Past Weather in Davenport — Graph

°F

Davenport Temperature Yesterday

Maximum temperature yesterday: 27 °F (at 12:21 am)
Minimum temperature yesterday: 3 °F (at 10:14 pm)
Average temperature yesterday: 18 °F

High & Low Weather Summary for the Past Weeks

 TemperatureHumidityPressure
High34 °F (Jan 15, 8:04 pm)96% (Jan 13, 9:37 pm)30.55 "Hg (Jan 13, 9:37 pm)
Low-3 °F (Jan 20, 9:52 pm)45% (Jan 10, 3:52 pm)29.75 "Hg (Jan 23, 5:24 am)
Average22 °F80%30.21 "Hg
* Reported Jan 9 4:52 am — Jan 24 4:52 am, Davenport. Weather by CustomWeather, © 2019

Note: Actual official high and low records may vary slightly from our data, if they occured in-between our weather recording intervals... More about our weather records

Advertising

Davenport Weather History for the Previous 24 Hours

Scroll right to see more
 ConditionsComfort  
Time TempWeatherWind HumidityBarometerVisibility
4:52 am
Thu, Jan 24
11 °FIce fog.5 mph88%29.88 "Hg6 mi
3:52 am6 °FIce fog.7 mph83%29.89 "Hg5 mi
3:09 am7 °FIce fog.5 mph83%29.87 "Hg3 mi
2:52 am4 °FIce fog.5 mph88%29.90 "Hg2 mi
2:10 am4 °FIce fog.3 mph88%29.88 "Hg2 mi
1:52 am3 °FIce fog.5 mph87%29.91 "Hg1 mi
1:27 am3 °FIce fog.5 mph91%29.88 "Hg1 mi
1:06 am3 °FIce fog.3 mph87%29.89 "Hg1 mi
12:52 am1 °FIce fog.No wind83%29.93 "Hg2 mi
11:52 pm
Wed, Jan 23
7 °FClear.3 mph76%29.95 "Hg4 mi
10:52 pm5 °FIce fog.5 mph87%29.96 "Hg4 mi
10:26 pm3 °FIce fog.6 mph84%29.92 "Hg4 mi
10:14 pm3 °FIce fog.6 mph84%29.92 "Hg2 mi
9:52 pm4 °FClear.3 mph80%29.94 "Hg4 mi
8:52 pm4 °FIce fog.6 mph88%29.94 "Hg5 mi
7:52 pm7 °FIce fog.6 mph87%29.95 "Hg6 mi
6:52 pm9 °FClear.8 mph84%29.95 "Hg9 mi
5:52 pm11 °FClear.8 mph81%29.93 "Hg10 mi
4:52 pm14 °FSunny.12 mph77%29.89 "Hg9 mi
3:52 pm17 °FSunny.15 mph74%29.89 "Hg9 mi
2:52 pm19 °FSunny.16 mph74%29.90 "Hg10 mi
1:52 pm19 °FSunny.16 mph77%29.86 "Hg10 mi
12:52 pm19 °FSunny.18 mph74%29.89 "Hg9 mi
11:52 am17 °FScattered clouds.15 mph80%29.89 "Hg10 mi
10:52 am20 °FLight snow. Mostly cloudy.16 mph78%29.89 "Hg8 mi
10:36 am19 °FMostly cloudy.16 mph81%29.88 "Hg5 mi
9:52 am19 °FLight snow. Broken clouds.17 mph81%29.87 "Hg4 mi
9:35 am19 °FLight snow. Ice fog.16 mph85%29.84 "Hg3 mi
9:10 am20 °FSnow. Ice fog.16 mph85%29.83 "Hg1 mi
8:52 am20 °FLight snow. Ice fog.16 mph85%29.86 "Hg1 mi
8:27 am20 °FLight snow. Ice fog.15 mph85%29.84 "Hg1 mi
8:11 am20 °FSnow. Ice fog.15 mph85%29.83 "Hg1 mi
7:36 am20 °FLight snow. Ice fog.17 mph85%29.82 "Hg2 mi
6:56 am20 °FIce fog.18 mph89%29.83 "Hg1 mi
6:38 am20 °FIce fog.16 mph89%29.81 "Hg1 mi
6:14 am21 °FLight snow. Ice fog.17 mph85%29.80 "Hg1 mi
6:01 am21 °FLight snow. Ice fog.18 mph85%29.78 "Hg1 mi
Weather by CustomWeather, © 2019

See weather overview